Retour au catalogue

STARLINK-35504

ActifCommunicationsVLEO
NORAD 66325·PAYLOAD·🇺🇸 United States

Lancé Nov 6, 2025 depuis Cape Canaveral Space Force Station

Loading…

Prochains Passages (prochaines 24 heures)

TLE

FraisSource: CelesTrak SupGP

Époque: Sep 14, 2026, 21:33 UTC

1 66325C 25253G   26257.89840278  .00024918  00000+0  90252-3 0  2578
2 66325  42.9995 224.3334 0000996 257.5075 227.9566 15.27566856    17

Suivez STARLINK-35504 en temps réel avec AllMySat

Download on the App Store